Regional Weather Roundup
Issued by NWS

Home | Current Version | Previous Version | Text Only | Print | Product List | Glossary Off
Versions: 1 2 3 4 5 6 7 8 9 10 11 12 13 14 15 16 17 18 19 20 21 22 23 24 25 26 27 28 29 30 31 32 33 34 35 36 37 38 39 40 41 42 43 44 45 46 47 48 49 50

000
ASUS44 KOUN 300600
RWROK

WEATHER ROUNDUP FOR OKLAHOMA
NATIONAL WEATHER SERVICE NORMAN OK
100 AM CDT MON MAY 30 2016

NOTE: "FAIR" INDICATES FEW OR NO CLOUDS BELOW 12,000 FEET WITH NO
      SIGNIFICANT WEATHER AND/OR OBSTRUCTIONS TO VISIBILITY.

OKZ001>007-009>012-014-015-017-300700-
NORTHWEST OKLAHOMA AND THE PANHANDLE

CITY           SKY/WX    TMP DP  RH WIND       PRES   REMARKS
GAGE           PTCLDY    57  52  83 CALM      30.08S
6HR MIN TEMP:  56; 6HR MAX TEMP:  73;

GUYMON         CLOUDY    57  49  74 CALM      30.09R
$$

OKZ016-021>023-033>039-044-045-300700-
SOUTHWEST OKLAHOMA

CITY           SKY/WX    TMP DP  RH WIND       PRES   REMARKS
LAWTON/REGL    CLOUDY    67  63  87 NE7       30.06R
6HR MIN TEMP:  67; 6HR MAX TEMP:  81; 6HR PCP:  0.02;

CLINTON        CLOUDY    65  55  70 W12       30.08R
HOBART         CLOUDY    63  60  90 SW9       30.06R
$$

OKZ018>020-024>031-300700-
CENTRAL OKLAHOMA

CITY           SKY/WX    TMP DP  RH WIND       PRES   REMARKS
OKLAHOMA CITY  CLOUDY    67  61  81 NE13      30.07R
6HR MIN TEMP:  67; 6HR MAX TEMP:  81; 6HR PCP:  0.33;

OKC/WILEY POST CLOUDY    67  62  84 E8        30.08R
STILLWATER     LGT RAIN  66  62  87 S9        30.05F
GUTHRIE        LGT RAIN  64  62  93 E5        30.08F
$$

OKZ008-013-054>072-300700-
NORTHEAST OKLAHOMA

CITY           SKY/WX    TMP DP  RH WIND       PRES   REMARKS
TULSA          CLOUDY    70  65  84 E5        30.02F
6HR MIN TEMP:  69; 6HR MAX TEMP:  75;

TULSA/JONES    CLOUDY    69  63  81 CALM      30.04F
PONCA CITY     CLOUDY    71  63  75 S6        30.02F
BARTLESVILLE   CLOUDY    63  61  93 CALM      30.05F
MUSKOGEE       CLOUDY    70  62  76 S5        30.05F
$$

OKZ032-040>043-046>053-073>077-300700-
SOUTH CENTRAL/SOUTHEAST OKLAHOMA

CITY           SKY/WX    TMP DP  RH WIND       PRES   REMARKS
MCALESTER      CLOUDY    72  63  73 VRB5      30.07S
$$




USA.gov is the U.S. government's official web portal to all federal, state and local government web resources and services.